Regional Weather Roundup
Issued by NWS

Home | Current Version | Previous Version | Graphics & Text | Print | Product List | Glossary Off
Versions: 1 2 3 4 5 6 7 8 9 10 11 12 13 14 15 16 17 18 19 20 21 22 23 24 25 26 27 28 29 30 31 32 33 34 35 36 37 38 39 40 41 42 43 44 45 46 47 48 49 50

000
ASUS43 KDTX 061901
RWRMI
MICHIGAN HOURLY REGIONAL WEATHER ROUNDUP
NATIONAL WEATHER SERVICE DETROIT/PONTIAC MI
200 PM EST FRI MAR 06 2015

NOTE: "FAIR" INDICATES FEW OR NO CLOUDS BELOW 12,000 FEET WITH NO
SIGNIFICANT WEATHER AND/OR OBSTRUCTION TO VISIBILITY.

MIZ047>049-052>055-059>063-066>070-074>076-081>083-062000-
SOUTHEAST LOWER MICHIGAN

CITY           SKY/WX    TMP DP  RH WIND       PRES   REMARKS
ADRIAN         SUNNY     17   5  59 SW18      30.38F WCI   1
ALMA           SUNNY     19   4  52 S13G21    30.28F WCI   7
ANN ARBOR      MOSUNNY   19   2  47 SW16      30.36F WCI   4
BAD AXE        MOSUNNY   22   4  45 SW13      30.25F WCI  10
CARO           MOSUNNY   23   2  40 S14G21    30.26F WCI  11
DETROIT CITY   MOSUNNY   23   2  40 SW20      30.36F WCI   8
DETROIT        PTSUNNY   21   4  47 S16       30.38F WCI   7
FLINT          MOSUNNY   24   0  35 S16G22    30.30F WCI  11
GROSSE ILE     PTSUNNY   21   7  53 S14G22    30.37F WCI   8
HILLSDALE      SUNNY     19   0  43 SW16      30.32F WCI   5
HOWELL         MOSUNNY   22   0  37 SW14      30.29F WCI  10

CITY           SKY/WX    TMP DP  RH WIND       PRES   REMARKS
JACKSON        MOSUNNY   20   2  45 SW15      30.31F WCI   6
LAMBERTVILLE   MOSUNNY   23   5  46 S10G16    30.40F WCI  12
LANSING        SUNNY     20   3  48 S17       30.30F WCI   5
LAPEER         FAIR      23   1  37 SW10G20   30.29F WCI  12
MASON          MOSUNNY   21   2  44 S7        30.30F WCI  12
MONROE         MOSUNNY   19   7  58 SW17      30.38F WCI   4
MT. CLEMENS    PTSUNNY   23   3  43 SW16      30.33F WCI   9
PONTIAC        PTSUNNY   20   1  43 S9        30.30F WCI   9
PORT HOPE        N/A     23   1  38 SW15G23   30.23F WCI  10
PORT HURON     MOSUNNY   19   9  63 S16G25    30.34F WCI   5
TRI CITIES     SUNNY     22   4  46 SW17G23   30.26F WCI   8
TROY           MOSUNNY   25   2  37 SW15G22   30.36F WCI  12
SAGINAW HB     SUNNY     23   5  46 SW17      30.27F WCI   9
$$
MIZ043>046-050>051-056>058-064>065-071>073-077>080-062000-
SOUTHWEST LOWER MICHIGAN

CITY           SKY/WX    TMP DP  RH WIND       PRES   REMARKS
BATTLE CREEK   SUNNY     19   5  54 S15       30.30F WCI   5
BENTON HARBOR  MOSUNNY   20   4  50 S16G23    30.31F WCI   6
BIG RAPIDS     MOSUNNY   23  11  60 SW15G21   30.19F WCI  10
COLDWATER      SUNNY     19   1  45 S10G16    30.33F WCI   7
FREMONT        MOCLDY    20   9  63 S18       30.24F WCI   4
HOLLAND        MOSUNNY   21   5  50 S16       30.29F WCI   7
GRAND RAPIDS   PTSUNNY   20   2  45 SW18G24   30.28F WCI   5
IONIA          FAIR      23   6  48 SW15      30.28F WCI  10
KALAMAZOO      SUNNY     20   5  52 S13       30.32F WCI   7
LUDINGTON      MOSUNNY   26  17  68 S21G30    30.18F WCI  11
MARSHALL       SUNNY     19   2  47 S14       30.31F WCI   6
MOUNT PLEASANT SUNNY     24   8  52 SW17      30.23F WCI  10
MUSKEGON       PTSUNNY   19   9  65 S22       30.27F WCI   2
SOUTH HAVEN    SUNNY     23   3  43 S12G18    30.30F WCI  11
$$
MIZ016>042-062000-
NORTHERN LOWER MICHIGAN

CITY           SKY/WX    TMP DP  RH WIND       PRES   REMARKS
ALPENA         MOSUNNY   27   3  35 SW12      30.12F WCI  17
BEAVER ISLAND  SUNNY     25  18  74 S21G35    30.04F HAZE    WCI  10
BELLAIRE       MOSUNNY   28   8  42 SW12G20   30.12F WCI  18
CADILLAC       MOSUNNY   24   9  53 S18G24    30.10F WCI  10
CHARLEVOIX     SUNNY     25  10  53 S21       30.11F WCI  11
FRANKFORT      MOSUNNY   25  16  69 SW20G31   30.13F WCI  11
GAYLORD        MOSUNNY   23   5  46 SW23      30.06F WCI   7
GRAYLING       MOSUNNY   25   6  44 SW12G21   30.12F WCI  14
HARBOR SPRINGS SUNNY     26  11  53 SW14G24   30.07F WCI  14
HOUGHTON LAKE  MOSUNNY   23   6  48 SW15      30.14F WCI  10
MANISTEE       SUNNY     25  12  58 S16G26    30.17F WCI  12
OSCODA         MOSUNNY   23   9  55 SW12G23   30.18F WCI  11
PELLSTON       MOSUNNY   26  10  50 SW8G24    30.07F WCI  18
ROGERS CITY    SUNNY     28   7  41 SW10      30.10F WCI  19
TRAVERSE CITY  MOSUNNY   28   9  44 SW14G22   30.10F WCI  17
$$
MIZ007>008-015-062000-
EASTERN UPPER MICHIGAN

CITY           SKY/WX    TMP DP  RH WIND       PRES   REMARKS
KINROSS        MOSUNNY   27  16  63 SW15G28   30.02F WCI  15
MACKINAC ISLAN SUNNY     26  10  52 SW12G21   30.05F WCI  15
NEWBERRY       MOSUNNY   23  16  73 S25G37    29.97F HAZE    WCI   7
S. S. MARIE    PTSUNNY   22   9  57 S20       30.02F WCI   7
MUNISING         N/A     25   6  44 S20G29    29.94F WCI  11
$$
MIZ004>006-011>014-085-062000-
CENTRAL UPPER MICHIGAN

CITY           SKY/WX    TMP DP  RH WIND       PRES   REMARKS
MANISTIQUE     CLOUDY    25  17  70 SW16G28   30.01F WCI  12
ESCANABA       CLOUDY    19  10  68 S15G28    30.01F WCI   5
MENOMINEE      MOSUNNY   23   9  54 SW20      30.03F WCI   8
SAWYER-GWINN   PTSUNNY   27   7  43 S15       29.89F WCI  15
$$
MIZ001>003-009>011-084-062000-
WESTERN UPPER MICHIGAN

CITY           SKY/WX    TMP DP  RH WIND       PRES   REMARKS
IRON MOUNTAIN  PTSUNNY   28   9  44 SW10G20   29.93F WCI  19
HOUGHTON       SUNNY     24  11  57 W18G26    29.87F WCI  10
COPPER HARBOR    N/A     26   9  48 W9G21     29.88F WCI  17
IRONWOOD       SUNNY     27   9  46 W13G20    29.90F WCI  16
$$

ABBREVIATIONS USED IN REMARKS
   TC - TEMPERATURE IN CELSIUS
  WCI - WIND CHILL INDEX
   HX - HEAT INDEX
  VSB - VISIBILITY



USA.gov is the U.S. government's official web portal to all federal, state and local government web resources and services.